Torna al catalogo

BREEZE-KM R/B

AttivoPO
NORAD 39486·ROCKET BODY·🇷🇺 Russia

Lanciato Dec 25, 2013 da Plesetsk Cosmodrome

Loading…

Prossimi Passaggi (prossime 24 ore)

TLE

AggiornatoSource: Space-Track

Epoca: Sep 14, 2026, 10:02 UTC

1 39486U 13076D   26257.41831695  .00000008  00000-0 -16652-4 0  9999
2 39486  82.4782 247.2157 0233448 152.0761 209.3102 12.82992764595698

Traccia BREEZE-KM R/B in tempo reale con AllMySat

Download on the App Store